Location: Bathurst
(33.4193°S, 149.5775°E)
Time: 18:51:03
(UTC+10:00)

Transit 4A - All Passes

Search period start: 15 June 2021 00:00
Search period end: 25 June 2021 00:00
Orbit: 872 x 973 km, 66.8° (Epoch: 14 June)

Date Brightness Start Highest point End Pass type
(mag) Time Alt. Az. Time Alt. Az. Time Alt. Az.
15 Jun - 06:28:14 10° S 06:32:21 17° SE 06:36:26 10° E visible
15 Jun - 08:12:59 10° SSW 08:19:25 78° WNW 08:25:43 10° NNE daylight
15 Jun - 21:29:26 10° N 21:35:07 43° ENE 21:40:59 10° SE night (unlit)
15 Jun - 23:16:28 10° WNW 23:21:36 27° SW 23:26:54 10° S night (unlit)
16 Jun - 06:36:48 10° S 06:42:00 25° SE 06:47:07 10° ENE visible
16 Jun - 08:22:28 10° SW 08:28:39 51° WNW 08:34:41 10° N daylight
16 Jun - 21:38:18 10° NNW 21:44:18 68° ENE 21:50:32 10° SSE night (unlit)
16 Jun - 23:26:59 10° W 23:31:13 19° SW 23:35:33 10° S night (unlit)
17 Jun - 06:45:39 10° S 06:51:32 36° ESE 06:57:20 10° ENE daylight
17 Jun - 08:32:11 10° SW 08:37:47 33° WNW 08:43:18 10° NNW daylight
17 Jun - 20:05:47 10° ENE 20:08:05 12° E 20:10:26 10° ESE night (unlit)
17 Jun - 21:47:29 10° NNW 21:53:34 80° WSW 21:59:53 10° SSE night (unlit)
17 Jun - 23:38:15 10° WSW 23:40:57 13° SW 23:43:41 10° SSW night (unlit)
18 Jun - 06:54:42 10° SSW 07:01:00 54° ESE 07:07:10 10° NE daylight
18 Jun - 08:42:15 10° WSW 08:46:51 21° WNW 08:51:24 10° NNW daylight
18 Jun - 20:12:46 10° NNE 20:17:05 21° ENE 20:21:30 10° ESE night (unlit)
18 Jun - 21:57:00 10° NW 22:02:55 53° WSW 22:09:05 10° SSE night (unlit)
19 Jun - 05:19:55 10° SSE 05:22:59 14° SE 05:26:02 10° ESE visible
19 Jun - 07:03:53 10° SSW 07:10:22 81° ESE 07:16:40 10° NNE daylight
19 Jun - 08:53:15 10° WSW 08:55:52 13° W 08:58:28 10° NW daylight
19 Jun - 20:20:50 10° NNE 20:26:08 32° ENE 20:31:36 10° SE night (unlit)
19 Jun - 22:06:50 10° WNW 22:12:22 35° WSW 22:18:06 10° S night (unlit)
20 Jun - 05:28:09 10° S 05:32:43 20° SE 05:37:13 10° E visible
20 Jun - 07:13:15 10° SSW 07:19:38 68° WNW 07:25:51 10° NNE daylight
20 Jun - 20:29:26 10° N 20:35:16 51° ENE 20:41:19 10° SE night (unlit)
20 Jun - 22:17:02 10° WNW 22:21:55 24° SW 22:26:56 10° S night (unlit)
21 Jun - 05:36:51 10° S 05:42:19 29° SE 05:47:43 10° ENE visible
21 Jun - 07:22:49 10° SW 07:28:49 44° WNW 07:34:42 10° N daylight
21 Jun - 20:38:25 10° NNW 20:44:29 79° ENE 20:50:48 10° SSE visible
21 Jun - 22:27:46 10° W 22:31:35 17° SW 22:35:29 10° S night (unlit)
22 Jun - 05:45:46 10° SSW 05:51:50 42° ESE 05:57:46 10° NE visible
22 Jun - 07:32:38 10° SW 07:37:56 28° WNW 07:43:08 10° NNW daylight
22 Jun - 19:04:55 10° NE 19:08:11 15° ENE 19:11:31 10° ESE visible
22 Jun - 20:47:43 10° NW 20:53:47 69° WSW 21:00:06 10° SSE visible
22 Jun - 22:39:35 10° WSW 22:41:21 11° SW 22:43:07 10° SSW night (unlit)
23 Jun - 04:12:33 10° SSE 04:13:35 10° SE 04:14:37 10° SE visible
23 Jun - 05:54:52 10° SSW 06:01:15 63° ESE 06:07:28 10° NE visible
23 Jun - 07:42:56 10° WSW 07:46:59 18° WNW 07:50:59 10° NW daylight
23 Jun - 19:12:27 10° NNE 19:17:12 24° ENE 19:22:05 10° SE visible
23 Jun - 20:57:20 10° NW 21:03:11 45° WSW 21:09:14 10° SSE visible
24 Jun - 04:19:41 10° SSE 04:23:23 16° SE 04:27:02 10° E visible
24 Jun - 06:04:08 10° SSW 06:10:35 87° WNW 06:16:52 10° NNE visible
24 Jun - 07:55:08 10° W 07:55:57 10° W 07:56:47 10° WNW daylight
24 Jun - 19:20:45 10° N 19:26:17 38° ENE 19:32:01 10° SE visible
24 Jun - 21:07:19 10° WNW 21:12:40 31° SW 21:18:11 10° S visible
